Location: Biberach+an+der+Riss
(48.0937°N, 9.7888°E)
Time: 07:23:44
(UTC+02:00)

ISS - Visible Passes

Search period start: 29 March 2017 00:00
Search period end: 08 April 2017 00:00
Orbit: 399 x 409 km, 51.6° (Epoch: 29 March)

Date Brightness Start Highest point End Pass type
(mag) Time Alt. Az. Time Alt. Az. Time Alt. Az.
29 Mar -3.9 21:41:55 10° WSW 21:45:05 80° SSW 21:45:05 80° SSW visible
30 Mar -3.7 20:49:39 10° SW 20:52:51 52° SSE 20:55:19 16° ENE visible
30 Mar -1.8 22:26:10 10° W 22:28:00 28° WNW 22:28:00 28° WNW visible
31 Mar -3.5 21:33:39 10° W 21:36:54 63° NNW 21:38:02 35° NE visible
31 Mar -0.4 23:10:31 10° WNW 23:10:43 11° WNW 23:10:43 11° WNW visible
01 Apr -3.8 20:41:11 10° WSW 20:44:28 87° NNW 20:47:45 10° ENE visible
01 Apr -2.4 22:18:00 10° WNW 22:20:37 38° NNW 22:20:37 38° NNW visible
02 Apr -3.0 21:25:28 10° W 21:28:38 47° N 21:30:24 22° NE visible
02 Apr -0.8 23:02:14 10° WNW 23:03:03 16° WNW 23:03:03 16° WNW visible
03 Apr -3.3 20:32:54 10° W 20:36:08 57° NNW 20:39:21 10° ENE visible
03 Apr -2.9 22:09:45 10° WNW 22:12:46 43° N 22:12:46 43° N visible
04 Apr -2.8 21:17:13 10° WNW 21:20:21 42° N 21:22:25 18° ENE visible
04 Apr -1.3 22:53:50 10° WNW 22:55:04 21° WNW 22:55:04 21° WNW visible
05 Apr -2.9 20:24:38 10° W 20:27:47 45° N 20:30:57 10° ENE visible
05 Apr -3.4 22:01:22 10° WNW 22:04:35 54° NNE 22:04:40 54° NNE visible
06 Apr -3.0 21:08:52 10° WNW 21:12:02 45° N 21:14:15 17° ENE visible
06 Apr -1.7 22:45:22 10° WNW 22:46:54 25° WNW 22:46:54 25° WNW visible
07 Apr -3.9 21:52:53 10° WNW 21:56:09 80° NNE 21:56:28 69° E visible
